Flag for Guadeloupe Weather past 2 weeks in Basse-Terre, Guadeloupe

Now
75 °F

Passing clouds.


Feels Like: 75 °F
Forecast: 75 / 79 °F
Wind: 2 mph from North

Location: Le Raizet - Guadeloupe

Current Time: Dec 21, 2014 at 8:03:23 PM

Latest Report: Dec 21, 2014 at 7:30 PM


Visibility: N/A

Pressure: 30.01 "Hg

Humidity: 89%

Dew point: 72 °F

Location of Basse-TerreLocation

Historic Weather in Basse-Terre — Graph

°F

Basse-Terre temperature yesterday

Maximum temperature yesterday: 81 °F (at 10:00 AM)
Minimum temperature yesterday: 70 °F (at 2:30 AM)
Average temperature yesterday: 74 °F

Past Weeks' High & Low Weather Summary

 TemperatureHumidityPressure
High86 °F (Dec 7, 11:00 AM)100% (Dec 7, 6:30 AM)30.07 "Hg (Dec 7, 6:30 AM)
Low68 °F (Dec 13, 3:30 AM)20% (Dec 17, 4:00 PM)29.83 "Hg (Dec 6, 7:00 PM)
Average76 °F82%29.94 "Hg
* Reported Dec 6 7:00 PM — Dec 21 7:00 PM, Basse-Terre, Weather by CustomWeather, © 2014

Note: Actual official high and low records may vary slightly from our data, if they occured in-between our weather recording intervals... More about our weather records

Advertising

Basse-Terre weather history for previous 24 hours

 ConditionsComfort  
Time TempWeatherWind HumidityBarometerVisibility
7:00 PM
Dec 21
75 °FPartly cloudy.1 mph89%30.01 "HgN/A
6:30 PM75 °FPartly cloudy.3 mph89%30.01 "HgN/A
5:30 PM79 °FBroken clouds.1 mph74%29.98 "HgN/A
5:00 PM79 °FBroken clouds.3 mph74%29.98 "HgN/A
4:30 PM79 °FBroken clouds.6 mph74%29.98 "HgN/A
4:00 PM79 °FScattered clouds.9 mph79%29.98 "Hg4 mi
3:34 PM79 °FScattered clouds.6 mph84%29.98 "Hg4 mi
3:00 PM79 °FRain. Broken clouds.2 mph79%29.98 "Hg4 mi
2:30 PM77 °FRain. Broken clouds.7 mph83%29.98 "Hg4 mi
2:04 PM77 °FRain. Broken clouds.9 mph79%29.98 "HgN/A
1:30 PM79 °FPartly sunny.7 mph84%29.98 "HgN/A
1:00 PM77 °FPartly sunny.7 mph89%30.01 "HgN/A
12:30 PM79 °FPartly sunny.9 mph79%30.01 "HgN/A
12:00 PM82 °FScattered clouds.14 mph70%30.04 "HgN/A
11:30 AM84 °FScattered clouds.6 mph62%30.04 "HgN/A
11:00 AM84 °FPartly sunny.8 mph66%30.04 "HgN/A
10:30 AM82 °FPartly sunny.12 mph66%30.04 "HgN/A
10:00 AM82 °FScattered clouds.8 mph70%30.07 "HgN/A
9:30 AM82 °FScattered clouds.8 mph70%30.07 "HgN/A
9:00 AM81 °FScattered clouds.6 mph74%30.04 "HgN/A
8:34 AM79 °FPassing clouds.No wind84%30.04 "HgN/A
8:00 AM75 °FPassing clouds.No wind94%30.04 "HgN/A
7:30 AM73 °FPassing clouds.No wind94%30.01 "HgN/A
7:00 AM72 °FPassing clouds.1 mph94%30.01 "HgN/A
6:30 AM72 °FPartly sunny.No wind94%29.98 "HgN/A
6:00 AM72 °FPassing clouds.No wind94%29.98 "HgN/A
5:30 AM70 °FClear.2 mph100%29.98 "HgN/A
5:00 AM72 °FClear.2 mph94%29.98 "HgN/A
4:30 AM72 °FPassing clouds.1 mph94%29.98 "HgN/A
4:00 AM72 °FMild.No wind94%29.98 "HgN/A
3:30 AM72 °FClear.2 mph94%29.98 "HgN/A
3:00 AM72 °FClear.3 mph94%29.98 "HgN/A
2:30 AM72 °FClear.2 mph94%29.98 "HgN/A
2:00 AM73 °FClear.No wind94%29.98 "HgN/A
1:30 AM73 °FMostly cloudy.No wind94%29.98 "HgN/A
1:00 AM73 °FPartly cloudy.1 mph94%30.01 "HgN/A
12:30 AM73 °FClear.2 mph89%30.01 "HgN/A
12:00 AM75 °FOvercast.No wind89%30.01 "HgN/A
11:30 PM
Dec 20
75 °FClear.3 mph89%30.01 "HgN/A
11:00 PM75 °FClear.No wind89%30.01 "HgN/A
10:30 PM75 °FClear.2 mph89%30.01 "HgN/A
10:00 PM75 °FOvercast.3 mph89%30.01 "HgN/A
9:30 PM75 °FClear.2 mph89%30.01 "HgN/A
9:00 PM75 °FPassing clouds.2 mph89%30.01 "HgN/A
8:30 PM75 °FPartly cloudy.2 mph89%30.01 "HgN/A
8:00 PM75 °FClear.3 mph89%30.01 "HgN/A
Weather by CustomWeather, © 2014

See weather overviewHow to use our weather pages